Preview of NWS' New Version of Forecast
This preview is not operational and should not be used for support decisions.

Regional Weather Roundup (RWR)

Issued by National Weather Service (NWS)

                            
000
ASUS43 KMKX 200321
RWRWI 

WISCONSIN REGIONAL WEATHER ROUNDUP
NATIONAL WEATHER SERVICE MILWAUKEE/SULLIVAN WI
1000 PM CDT WED JUN 19 2019

NOTE: "FAIR" INDICATES FEW OR NO CLOUDS BELOW 12,000 FEET WITH NO
SIGNIFICANT WEATHER AND/OR OBSTRUCTIONS TO VISIBILITY.

WIZ001-002-006>008-014>016-023>028-200400-
NORTHWEST WISCONSIN
  
CITY           SKY/WX    TMP DP  RH WIND       PRES   REMARKS
SUPERIOR ARPT  FAIR      51  48  88 NE5       29.82R                  
ASHLAND        FAIR      50  48  93 N6        29.83R                  
HAYWARD        FAIR      57  46  66 NE6       29.80S                  
SIREN          FAIR      64  42  44 E3        29.79R                  
CUMBERLAND     FAIR      63  46  55 NE7       29.78S                  
RICE LAKE      FAIR      66  51  58 N9        29.79R                  
CHETEK         FAIR      66  51  57 NE6       29.77R                  
LADYSMITH      FAIR      60  50  70 N6        29.80R                  
EAU CLAIRE     FAIR      62  54  74 NE3       29.74R                  
MENOMONIE      FAIR      64  51  62 NE3       29.75R                  
NEW RICHMOND   FAIR      65  51  58 NE3       29.77R                  
OSCEOLA        FAIR      66  54  65 NE3       29.79R                  
$$
 
WIZ003>005-009-010-017-018-200400-
NORTH CENTRAL WISCONSIN
  
CITY           SKY/WX    TMP DP  RH WIND       PRES   REMARKS
MANITOWISH WTR FAIR      56  42  59 NE6       29.82S                  
ARBOR VITAE    FAIR      62  46  56 CALM      29.82R                  
WOODRUFF       FAIR      62  46  56 CALM      29.82R                  
RHINELANDER    FAIR      62  43  49 E6        29.82R                  
EAGLE RIVER    FAIR      54  41  62 CALM      29.82S                  
LAND O LAKES   FAIR      48  46  90 CALM      29.85R                  
PHILLIPS       FAIR      56  48  74 NE6       29.80R                  
TOMAHAWK       FAIR      55  49  81 E3        29.81R                  
MEDFORD        FAIR      57  50  79 E5        29.78S                  
MERRILL        FAIR      58  53  83 NE5       29.80R                  
$$
 
WIZ029-030-035-036-043>047-200400-
CENTRAL WISCONSIN
  
CITY           SKY/WX    TMP DP  RH WIND       PRES   REMARKS
WAUSAU         FAIR      62  51  67 E8        29.76R                  
MOSINEE        FAIR      59  52  77 E6        29.79R                  
MARSHFIELD     CLOUDY    66  53  63 E7        29.76R                  
STEVENS POINT  FAIR      60  54  79 E5        29.78R                  
WAUPACA        FAIR      64  53  65 NE6       29.77S                  
WAUTOMA        FAIR      63  54  72 NE6       29.76R                  
WISC RAPIDS    FAIR      63  56  78 E6        29.77R                  
CAMP DOUGLAS   MOCLDY    61  61 100 SE5       29.75R                  
$$
 
WIZ011>013-019>022-031-037>040-048>050-200400-
NORTHEAST WISCONSIN
  
CITY           SKY/WX    TMP DP  RH WIND       PRES   REMARKS
ANTIGO         FAIR      57  47  71 NE7       29.81S                  
SHAWANO        FAIR      62  54  75 E3        29.77S                  
OCONTO         FAIR      57  55  92 CALM      29.77R                  
STURGEON BAY   FAIR      60  56  86 N7        29.77S                  
GREEN BAY      FAIR      61  57  87 N5        29.76R                  
MANITOWOC      FAIR      58  54  86 N6        29.75S                  
APPLETON       MOCLDY    63  52  67 NE5       29.75R                  
CLINTONVILLE   FAIR      61  53  74 CALM      29.77S                  
OSHKOSH        FAIR      63  54  72 NE7       29.75S                  
$$
 
WIZ032>034-041-042-053>061-200400-
SOUTHWEST WISCONSIN
  
CITY           SKY/WX    TMP DP  RH WIND       PRES   REMARKS
LA CROSSE      FAIR      71  53  52 E5        29.72R                  
SPARTA         FAIR      62  56  79 CALM      29.75S                  
VIROQUA        MOCLDY    64  60  87 E5        29.76R                  
BOSCOBEL       FAIR      65  59  81 CALM      29.73R                  
PRAIRIE DU CHI FAIR      63  59  87 CALM      29.73R                  
PLATTEVILLE    CLOUDY    62  61  97 NE6       29.74R                  
$$

WIZ056-057-062-063-064-067-068-200400-
SOUTH CENTRAL WISCONSIN
  
CITY           SKY/WX    TMP DP  RH WIND       PRES   REMARKS
REEDSBURG      FAIR      60  55  82 CALM      29.74S                  
BARABOO/DELLS  FAIR      60  53  77 E3        29.75R                  
LONE ROCK      FAIR      63  58  83 NE3       29.73R                  
MINERAL POINT  CLOUDY    63  61  94 CALM      29.74R                  
MADISON        CLOUDY    61  55  81 NE3       29.73R                  
MIDDLETON      CLOUDY    61  57  84 CALM      29.74R                  
WATERTOWN      CLOUDY    59  57  94 NE3       29.72S                  
MONROE         MOCLDY    58  57  96 NE5       29.73R                  
JANESVILLE     LGT RAIN  59  59 100 NE7       29.72S                  
$$
 
WIZ051-052-058>065-066-070>072-200400-
SOUTHEAST WISCONSIN
  
CITY           SKY/WX    TMP DP  RH WIND       PRES   REMARKS
MILWAUKEE      LGT RAIN  56  53  90 N12       29.72S                  
WAUKESHA       RAIN      54  54 100 NE6       29.74S                  
MILWAUKEE/TIMM LGT RAIN  55  50  82 N7        29.74S                  
RACINE         LGT RAIN  54  52  93 N14       29.72F                  
KENOSHA        LGT RAIN  56  54  93 N10       29.71S                  
FOND DU LAC    FAIR      63  53  70 NE12      29.75S                  
SHEBOYGAN      FAIR      58  53  84 N8        29.74S                  
WEST BEND      CLOUDY    57  54  88 NE3       29.73S                  
JUNEAU         FAIR      60  54  80 NE3       29.75R                  
$$

LSZ147-162-200400-
LAKE SUPERIOR
  
STATION/POSITION TIME  TEMP    WIND        PRES    WAVE
                       AIR SEA DIR/SP/G            HT/PER
                 (UTC) (F)     (DEG/KT/KT) (MB)    (FT/S)
W MID LAKE BUOY  0250   44 39   50/  6/  6 1010.7R   0
$$
 
LMZ867-665-643>646-200400-
LAKE MICHIGAN
  
STATION/POSITION TIME  TEMP    WIND        PRES    WAVE
                       AIR SEA DIR/SP/G            HT/PER
                 (UTC) (F)     (DEG/KT/KT) (MB)    (FT/S)
N MID LAKE BUOY  0300   48 41   10/  8/ 10 1008.3
NORTHPORT PIER   0240   62     350/  7/  9 1008.1R
KEWAUNEE LAKESHO 0236   59     360/  3/  7 1006.9S
SHEBOYGAN LAKESH 0300   57     350/ 13/ 14 1006.9S
MILWAUKEE LAKESH 0250   55     360/ 11/ 14   N/A
S MID LAKE BUOY  0300   49     360/ 12/ 14 1005.7
KENOSHA   LAKESH 0300   56     350/ 11/ 14 1006.1
$$

TC  - TEMPERATURE IN CELSIUS
VSB - VISIBILITY IN STATUTE MILES
WCI - WIND CHILL INDEX
HX  - HEAT INDEX